Location: Knowlton
(51.2333°N, 1.2667°E)
Time: 08:55:00
(UTC+00:00)

SL-8 R/B - Pass Details

Date: 18 April 2021
Orbit: 656 x 667 km, 48.4° (Epoch: 05 May)

Event Time Altitude Azimuth Distance (km) Brightness Sun altitude
Rises 19:37:20 0° 276° (W) 3,006 8.6 -6.7°
Reaches altitude 10° 19:39:44 10° 271° (W) 2,092 7.4 -7.1°
Maximum altitude 19:44:24 50° 197° (SSW) 852 4.2 -7.7°
Enters shadow 19:48:58 11° 123° (ESE) 2,052 5.5 -8.3°
